Location: Shandelee
(41.8790°N, 74.8713°W)
Time: 05:16:48
(UTC+00:00)

NOSS 3-3 (C) - Pass Details

Date: 29 October 2020
Orbit: 825 x 1387 km, 63.4° (Epoch: 22 November)

Event Time Altitude Azimuth Distance (km) Brightness Sun altitude
Rises 23:24:27 0° 216° (SW) 3,386 7.4 -16.8°
Reaches altitude 10° 23:26:48 10° 218° (SW) 2,489 6.7 -17.3°
Maximum altitude 23:32:33 82° 306° (NW) 935 3.9 -18.3°
Enters shadow 23:38:38 12° 34° (NE) 2,647 5.9 -19.5°
